Delta Virtual Airport Information Service

Atlanta Hartsfield-Jackson International Airport

ICAO: KATL Country: United States
Latitude: 33.6367 Longitude: -84.428
Latest Arrival : DAL7356201 (KRDU-KATL) Latest Departure : DAL8816 (A) (KATL-KGSP)


WX CaptureLIVE
Data provided by noaa.gov | Fetched at 08:42:48

METAR : KATL 041252Z 20005KT 10SM FEW005 23/19 A3000 RMK AO2 SLP151 T02280194

TAF : KATL 041125Z 0412/0518 30004KT P6SM SCT003 FM041400 28004KT P6SM FEW035 FM041800 26007KT P6SM VCSH SCT050 FM050000 31003KT P6SM SCT060 SCT150 FM050800 08003KT P6SM SKC


Runway Data for KATL
Data provided by openaviationdata.com

Runway ID Mag Var Hdg Length Elevation Surface ILS Freq ILS Id ILS Slope
08L -3 93° 8990 ft 1026 ft Concrete 109.3 IHFW 3
08R -3 93° 9989 ft 1026 ft Concrete 109.9 IATL 3
09L -3 93° 11876 ft 1026 ft Concrete 110.5 IHZK 3
09R -3 93° 8990 ft 1026 ft Concrete 108.9 IFUN 3
26L -3 273° 9989 ft 1026 ft Concrete 108.7 IBRU 3
26R -3 273° 8990 ft 1026 ft Concrete 110.1 IGXZ 3
27L -3 273° 8990 ft 1026 ft Concrete 108.5 IFSQ 3
27R -3 273° 11876 ft 1026 ft Concrete 111.3 IAFA 3

Atlanta Hartsfield-Jackson International Airport, United States
Use only for reference purposes



Not for navigational purposes.